Weather History for KD55 - August, 2014

Change the Weather History Date:

Thursday, August 14, 2014

  Actual Average (KDVL) Record (KDVL)
Temperature  
Mean Temperature 70 °F -  
Max Temperature 84 °F 78 °F 99 °F (1952)
Min Temperature 57 °F 55 °F 33 °F (1968)
Cooling Degree Days 6    
Growing Degree Days 20 (Base 50)    
Moisture  
Dew Point 58 °F    
Average Humidity 67    
Maximum Humidity 94    
Minimum Humidity 40    
Precipitation  
Precipitation 0.00 in - - ()
Sea Level Pressure  
Sea Level Pressure 29.99 in    
Wind  
Wind Speed 10 mph (SSE)    
Max Wind Speed 17 mph    
Max Gust Speed 23 mph    
Visibility 10 miles    
Events      
Averages and records for this station are not official NWS values.
T = Trace of Precipitation, MM = Missing Value Source: NWS Daily Summary

Daily Weather History Graph

Daily Weather History Graph

Search for Another Location

Airport or City:

Trip Planner

Search our weather history database for the weather conditions in past years. The results will help you decide how hot, cold, wet, or windy it might be!

Date:

Astronomy

Aug. 14, 2014 Rise Set
Actual Time 6:25 AM CDT 8:50 PM CDT
Civil Twilight 5:50 AM CDT 9:25 PM CDT
Nautical Twilight 5:06 AM CDT 10:08 PM CDT
Astronomical Twilight 4:15 AM CDT 10:59 PM CDT
Moon 10:44 PM CDT (8/14) 11:31 AM CDT (8/14)
Length of Visible Light 15h 34m
Length of Day
14h 25m
Waning Gibbous, 79% of the Moon is Illuminated
Aug 14
Waning Gibbous
Aug 17
Last Quarter
Aug 25
New
Sep 2
First Quarter
Sep 8
Full

Hourly Weather History & Observations

Time (CDT) Temp. Heat Index Dew Point Humidity Pressure Visibility Wind Dir Wind Speed Gust Speed Precip Events Conditions
12:15 AM 66.2 °F - 55.4 °F 68% 30.08 in 10.0 mi SE 9.2 mph - N/A   Scattered Clouds
12:35 AM 66.2 °F - 55.4 °F 68% 30.08 in 10.0 mi SE 9.2 mph - N/A   Mostly Cloudy
12:55 AM 64.4 °F - 55.4 °F 73% 30.08 in 10.0 mi SE 10.4 mph - N/A   Overcast
1:15 AM 64.4 °F - 55.4 °F 73% 30.07 in 10.0 mi SE 10.4 mph - N/A   Overcast
1:35 AM 64.4 °F - 55.4 °F 73% 30.08 in 10.0 mi SE 9.2 mph - N/A   Mostly Cloudy
1:55 AM 64.4 °F - 55.4 °F 73% 30.07 in 10.0 mi ESE 8.1 mph - N/A   Overcast
2:15 AM 64.4 °F - 55.4 °F 73% 30.06 in 10.0 mi SE 11.5 mph - N/A   Overcast
2:35 AM 64.4 °F - 55.4 °F 73% 30.05 in 10.0 mi SSE 11.5 mph - N/A   Overcast
2:55 AM 64.4 °F - 55.4 °F 73% 30.05 in 10.0 mi SSE 10.4 mph - N/A   Mostly Cloudy
3:15 AM 62.6 °F - 53.6 °F 72% 30.05 in 10.0 mi SSE 8.1 mph - N/A   Overcast
3:35 AM 62.6 °F - 53.6 °F 72% 30.05 in 10.0 mi SSE 9.2 mph - N/A   Mostly Cloudy
3:55 AM 62.6 °F - 53.6 °F 72% 30.04 in 10.0 mi SE 8.1 mph - N/A   Overcast
4:15 AM 62.6 °F - 53.6 °F 72% 30.04 in 10.0 mi SSE 8.1 mph - N/A   Overcast
4:35 AM 62.6 °F - 53.6 °F 72% 30.04 in 10.0 mi SE 8.1 mph - N/A   Mostly Cloudy
4:55 AM 62.6 °F - 55.4 °F 77% 30.04 in 10.0 mi SE 9.2 mph - N/A   Mostly Cloudy
5:15 AM 62.6 °F - 55.4 °F 77% 30.04 in 10.0 mi SE 9.2 mph - N/A   Mostly Cloudy
5:35 AM 60.8 °F - 55.4 °F 82% 30.03 in 10.0 mi SE 9.2 mph - N/A   Partly Cloudy
5:55 AM 60.8 °F - 55.4 °F 82% 30.02 in 10.0 mi SSE 9.2 mph - N/A   Clear
6:15 AM 59.0 °F - 55.4 °F 88% 30.02 in 10.0 mi SE 8.1 mph - N/A   Scattered Clouds
6:35 AM 59.0 °F - 53.6 °F 82% 30.03 in 10.0 mi ESE 5.8 mph - N/A   Scattered Clouds
6:55 AM 57.2 °F - 55.4 °F 94% 30.03 in 10.0 mi ESE 6.9 mph - N/A   Scattered Clouds
7:15 AM 59.0 °F - 55.4 °F 88% 30.03 in 10.0 mi ESE 9.2 mph - N/A   Mostly Cloudy
7:35 AM 62.6 °F - 55.4 °F 77% 30.03 in 10.0 mi SE 8.1 mph - N/A   Mostly Cloudy
7:55 AM 62.6 °F - 55.4 °F 77% 30.02 in 10.0 mi SE 9.2 mph - N/A   Scattered Clouds
8:15 AM 62.6 °F - 57.2 °F 82% 30.02 in 10.0 mi SSE 8.1 mph - N/A   Partly Cloudy
8:35 AM 64.4 °F - 57.2 °F 77% 30.02 in 10.0 mi SE 9.2 mph - N/A   Mostly Cloudy
8:55 AM 64.4 °F - 57.2 °F 77% 30.02 in 10.0 mi SE 10.4 mph - N/A   Overcast
9:15 AM 64.4 °F - 57.2 °F 77% 30.02 in 10.0 mi SE 9.2 mph - N/A   Overcast
9:35 AM 64.4 °F - 57.2 °F 77% 30.02 in 10.0 mi ESE 6.9 mph - N/A   Overcast
9:55 AM 66.2 °F - 57.2 °F 73% 30.01 in 10.0 mi SE 8.1 mph - N/A   Mostly Cloudy
10:15 AM 68.0 °F - 59.0 °F 73% 30.01 in 10.0 mi SE 9.2 mph - N/A   Scattered Clouds
10:35 AM 68.0 °F - 59.0 °F 73% 30.01 in 10.0 mi SE 10.4 mph - N/A   Scattered Clouds
10:55 AM 69.8 °F - 59.0 °F 68% 30.01 in 10.0 mi SSE 9.2 mph - N/A   Partly Cloudy
11:15 AM 71.6 °F - 59.0 °F 64% 30.00 in 10.0 mi SSE 10.4 mph - N/A   Clear
11:35 AM 73.4 °F - 60.8 °F 65% 30.00 in 10.0 mi SSE 9.2 mph - N/A   Clear
11:55 AM 77.0 °F - 60.8 °F 57% 30.00 in 10.0 mi SE 11.5 mph - N/A   Clear
12:15 PM 80.6 °F 81.5 °F 60.8 °F 51% 30.00 in 10.0 mi SSE 12.7 mph - N/A   Clear
12:35 PM 80.6 °F 81.5 °F 60.8 °F 51% 30.00 in 10.0 mi SSE 13.8 mph 19.6 mph N/A   Clear
12:55 PM 77.0 °F - 60.8 °F 57% 30.00 in 10.0 mi SSE 13.8 mph 18.4 mph N/A   Clear
1:15 PM 77.0 °F - 62.6 °F 61% 29.99 in 10.0 mi SSE 10.4 mph - N/A   Clear
1:35 PM 80.6 °F 81.8 °F 62.6 °F 54% 29.98 in 10.0 mi South 11.5 mph 17.3 mph N/A   Clear
1:55 PM 82.4 °F 82.9 °F 60.8 °F 48% 29.98 in 10.0 mi South 15.0 mph 19.6 mph N/A   Clear
2:15 PM 82.4 °F 82.9 °F 60.8 °F 48% 29.97 in 10.0 mi South 16.1 mph 23.0 mph N/A   Clear
2:35 PM 82.4 °F 82.5 °F 59.0 °F 45% 29.97 in 10.0 mi South 11.5 mph - N/A   Clear
2:55 PM 82.4 °F 82.0 °F 57.2 °F 42% 29.96 in 10.0 mi SSE 16.1 mph 20.7 mph N/A   Scattered Clouds
3:15 PM 84.2 °F 83.8 °F 59.0 °F 42% 29.95 in 10.0 mi SSE 16.1 mph 20.7 mph N/A   Partly Cloudy
3:35 PM 84.2 °F 83.5 °F 57.2 °F 40% 29.96 in 10.0 mi SSE 16.1 mph 20.7 mph N/A   Clear
3:55 PM 84.2 °F 83.8 °F 59.0 °F 42% 29.95 in 10.0 mi South 12.7 mph 20.7 mph N/A   Clear
4:15 PM 84.2 °F 83.5 °F 57.2 °F 40% 29.95 in 10.0 mi South 15.0 mph 21.9 mph N/A   Clear
4:35 PM 84.2 °F 83.8 °F 59.0 °F 42% 29.95 in 10.0 mi SSE 15.0 mph 21.9 mph N/A   Clear
4:55 PM 84.2 °F 83.8 °F 59.0 °F 42% 29.94 in 10.0 mi SSE 17.3 mph - N/A   Clear
5:15 PM 82.4 °F 82.5 °F 59.0 °F 45% 29.93 in 10.0 mi South 12.7 mph 18.4 mph N/A   Unknown
5:35 PM 82.4 °F 82.5 °F 59.0 °F 45% 29.93 in 10.0 mi SSE 15.0 mph 20.7 mph N/A   Clear
5:55 PM 82.4 °F 82.5 °F 59.0 °F 45% 29.93 in 10.0 mi SSE 16.1 mph - N/A   Clear
6:15 PM 80.6 °F 80.8 °F 57.2 °F 45% 29.92 in 10.0 mi SSE 12.7 mph 18.4 mph N/A   Clear
6:35 PM 80.6 °F 80.8 °F 57.2 °F 45% 29.92 in 10.0 mi SSE 11.5 mph - N/A   Clear
6:55 PM 80.6 °F 80.8 °F 57.2 °F 45% 29.92 in 10.0 mi SSE 12.7 mph 19.6 mph N/A   Clear
7:15 PM 77.0 °F - 59.0 °F 54% 29.92 in 10.0 mi SE 9.2 mph - N/A   Clear
7:35 PM 77.0 °F - 59.0 °F 54% 29.92 in 10.0 mi SSE 9.2 mph - N/A   Clear
7:55 PM 75.2 °F - 60.8 °F 61% 29.92 in 10.0 mi SSE 8.1 mph - N/A   Clear
8:15 PM 73.4 °F - 60.8 °F 65% 29.91 in 10.0 mi SSE 8.1 mph - N/A   Clear
8:35 PM 71.6 °F - 60.8 °F 69% 29.91 in 10.0 mi SSE 6.9 mph - N/A   Clear
8:55 PM 68.0 °F - 60.8 °F 78% 29.91 in 10.0 mi SSE 6.9 mph - N/A   Clear
9:15 PM 68.0 °F - 62.6 °F 83% 29.92 in 10.0 mi SE 8.1 mph - N/A   Clear
9:35 PM 66.2 °F - 62.6 °F 88% 29.92 in 10.0 mi SSE 6.9 mph - N/A   Clear
9:55 PM 64.4 °F - 60.8 °F 88% 29.92 in 10.0 mi SSE 6.9 mph - N/A   Clear
10:15 PM 66.2 °F - 62.6 °F 88% 29.92 in 10.0 mi South 6.9 mph - N/A   Clear
10:35 PM 66.2 °F - 64.4 °F 94% 29.92 in 10.0 mi South 8.1 mph - N/A   Clear
10:55 PM 68.0 °F - 64.4 °F 88% 29.92 in 10.0 mi South 9.2 mph - N/A   Clear
11:15 PM 68.0 °F - 64.4 °F 88% 29.92 in 10.0 mi South 9.2 mph - N/A   Clear
11:35 PM 68.0 °F - 64.4 °F 88% 29.91 in 10.0 mi South 8.1 mph - N/A   Clear
11:55 PM 68.0 °F - 64.4 °F 88% 29.92 in 10.0 mi South 6.9 mph - N/A   Clear